Aérodrome :
LOGIN :

S'inscrire | Disclaimer

   EN    FR    IT 

 










Légende :    VFR   VFR Marginal   IFR   IFR Intensif   IFR Très Intensif
Visi : 
Plafond : 
>= 8 km
>= 3000ft
5 à 8 km
1000 à 3000 ft
1500m à 5 km
500 à 1000 ft
800 à 1500m
200 à 500 ft
< 800m
< 200 ft
Symboles :   Orages  Brouillard  Fortes neiges  Fortes précipitations  Vent > 20 kt
SIGMETs :   Divers  Orages  Givrage  Turbulence  Onde Orograph.  Cendres Volcan.






- Altitude de l'aérodrome : 302 ft
- Code IATA : MAH


LEMH - Menorca

DERNIER METAR :
  • 090730Z 15003KT 120V230 CAVOK 26/19 Q1018

METARs EXPIRÉS :
  • 090700Z 13003KT 060V210 CAVOK 25/19 Q1018
  • 090630Z 11004KT 070V140 CAVOK 24/19 Q1017
  • 090600Z VRB01KT CAVOK 23/19 Q1017
  • 090530Z 08003KT 060V120 CAVOK 22/18 Q1016

TAF TAF LEMH
Valide du 09 à 03h jusqu'au 10 à 03h UTC


090200Z 0903/1003 VRB04KT CAVOK TX30/0914Z TN20/0905Z
BECMG 0907/0909 09010KT



MET'MAP, la Météo Aéronautique d'un coup d'oeil ! - Copyright ORBIFLY Décembre 2007 - Disclaimer

ORBIFLY MET'MAP TEAM :

Programmation & Développement : Alexandra Zaïnal
Sur une idée originale de : Baudouin d'Aumeries
Assistance à la programmation : Marc-Olivier Méhu
Soutien technique & logistique : Manuel Goepfert

Contact : metmap@orbifly.com




SOURCES & CREDITS :

   NOAA